Regional Weather Roundup
Issued by NWS

Home | Current Version | Previous Version | Graphics & Text | Print | Product List | Glossary On
Versions: 1 2 3 4 5 6 7 8 9 10 11 12 13 14 15 16 17 18 19 20 21 22 23 24 25 26 27 28 29 30 31 32 33 34 35 36 37 38 39 40 41 42 43 44 45 46 47 48 49 50
000
ASUS43 KIND 120609
RWRIN

WEATHER ROUNDUP FOR INDIANA
NATIONAL WEATHER SERVICE INDIANAPOLIS IN
200 AM EDT SAT JUL 12 2014

NOTE: "FAIR" INDICATES FEW OR NO CLOUDS BELOW 12,000 FEET WITH NO
SIGNIFICANT WEATHER AND/OR OBSTRUCTIONS TO VISIBILITY.

* - STATION DOES NOT REPORT WEATHER SUCH AS PRECIPITATION OR FOG.

+ - STATION NOT QUALITY CONTROLLED BY THE NATIONAL WEATHER SERVICE.
    USE DATA WITH CAUTION...ESPECIALLY DEWPOINT AND RELATIVE
    HUMIDITY OBSERVATIONS.

INZ001>003-010>013-019-020-120700-
NORTHWEST INDIANA

CITY           SKY/WX    TMP DP  RH WIND       PRES   REMARKS
GARY /AIRPORT/ CLOUDY    74  61  63 SE6       30.13F
KNOX *+        CLOUDY    68  62  82 CALM      30.15S
LA PORTE +     CLOUDY    67  64  87 CALM      30.16S
6HR MIN TEMP:  67; 6HR MAX TEMP:  73;

MICHIGAN CITY+ CLOUDY    70  59  68 CALM      30.14F
MONTICELLO +   CLOUDY    71  64  79 S3        30.15F
RENSSELAER +   CLOUDY    68  66  94 CALM      30.15F
VALPARAISO     CLOUDY    69  62  78 SE3       30.15F
6HR MIN TEMP:  68; 6HR MAX TEMP:  74; 6HR PCP: TRACE;


$$

LMZ046-743>745-120700-
SOUTHERN LAKE MICHIGAN

STATION/POSITION TIME  TEMP WIND        PRES
                       AIR  DIR/SP/G
                 (UTC) (F)  (DEG/KT/KT) (MB)
BURNS HARBOR     0500   74  170/  5/  8 1021.0F
MICHIGAN CITY    0600   73  140/  6/  8   N/A

$$

INZ004-005-014>016-021>024-120700-
NORTH CENTRAL INDIANA

CITY           SKY/WX    TMP DP  RH WIND       PRES   REMARKS
GOSHEN         CLOUDY    70  63  78 CALM      30.16F
6HR MIN TEMP:  69; 6HR MAX TEMP:  76; 6HR PCP: TRACE;

LOGANSPORT +   CLOUDY    66  61  82 CALM      30.17F
PERU/GRISSOM   CLOUDY    70  67  91 SE3       30.17S
6HR MIN TEMP:  68; 6HR MAX TEMP:  78;

ROCHESTER +    CLOUDY    72  63  73 E3        30.17F
SOUTH BEND     CLOUDY    71  60  68 S3        30.15F
6HR MIN TEMP:  71; 6HR MAX TEMP:  75; 6HR PCP: TRACE;

WARSAW +       CLOUDY    68  63  83 CALM      30.17S

$$

INZ006>009-017-018-025>027-120700-
NORTHEAST INDIANA

CITY           SKY/WX    TMP DP  RH WIND       PRES   REMARKS
ANGOLA *+      CLOUDY    66  57  72 CALM      30.18S
AUBURN +       MOCLDY    68  57  68 CALM      30.19S
FORT WAYNE     CLOUDY    71  61  70 CALM      30.18S
6HR MIN TEMP:  70; 6HR MAX TEMP:  79;

HUNTINGTON +   CLOUDY    67  64  91 CALM      30.17S
6HR MIN TEMP:  67; 6HR MAX TEMP:  76;


$$

INZ028-029-035-036-043>045-051>053-120700-
WEST CENTRAL INDIANA

CITY           SKY/WX    TMP DP  RH WIND       PRES   REMARKS
GREENCASTLE +  CLOUDY    68  63  83 CALM      30.17F
LAFAYETTE      CLOUDY    69  62  78 CALM      30.15F
6HR MIN TEMP:  67; 6HR MAX TEMP:  78;

TERRE HAUTE    CLOUDY    71  64  78 CALM      30.15S
6HR MIN TEMP:  68; 6HR MAX TEMP:  80;


$$

INZ030>032-037>040-046>048-054>057-064-065-120700-
CENTRAL INDIANA

CITY           SKY/WX    TMP DP  RH WIND       PRES   REMARKS
CP ATTERBURY + PTCLDY    61  59  94 CALM      30.18S FOG
GREENWOOD *+   PTCLDY    68  64  88 CALM      30.18
INDIANAPOLIS   MOCLDY    69  60  73 SE7       30.16F
6HR MIN TEMP:  69; 6HR MAX TEMP:  78;

-EAGLE CREEK   MOCLDY    70  62  76 CALM      30.16F
6HR MIN TEMP:  67; 6HR MAX TEMP:  80;

KOKOMO *+      CLOUDY    66  63  88 CALM      30.18S
MARION +       CLOUDY    66  62  86 CALM      30.18F
MT COMFORT *+  PTCLDY    64  64 100 CALM      30.19S
SHELBYVILLE    CLEAR     65  60  84 SE6       30.17F
6HR MIN TEMP:  65; 6HR MAX TEMP:  81;

ZIONSVILLE +   MOCLDY    66  62  86 CALM      30.18S
6HR MIN TEMP:  64; 6HR MAX TEMP:  79;


$$

INZ033-034-041-042-049-050-058-059-120700-
EAST CENTRAL INDIANA

CITY           SKY/WX    TMP DP  RH WIND       PRES   REMARKS
MUNCIE         MOCLDY    68  62  81 N5        30.19R
6HR MIN TEMP:  67; 6HR MAX TEMP:  78;


$$

INZ060-061-067>069-081>083-085>088-120700-
SOUTHWEST INDIANA

CITY           SKY/WX    TMP DP  RH WIND       PRES   REMARKS
EVANSVILLE     PTCLDY    72  66  81 CALM      30.16S
6HR MIN TEMP:  72; 6HR MAX TEMP:  86;

HUNTINGBURG *+ PTCLDY    68  63  83 CALM      30.16S
6HR MIN TEMP:  66; 6HR MAX TEMP:  84;

WASHINGTON +   CLOUDY    68  65  92 S3        30.15S
6HR MIN TEMP:  66; 6HR MAX TEMP:  81;


$$

INZ062-063-066-070>080-084-089>092-120700-
SOUTH CENTRAL AND SOUTHEAST INDIANA

CITY           SKY/WX    TMP DP  RH WIND       PRES   REMARKS
BLOOMINGTON    MOCLDY    65  62  90 CALM      30.17F
6HR MIN TEMP:  63; 6HR MAX TEMP:  79;

NORTH VERNON + CLEAR     63  63 100 CALM      30.18
SEYMOUR +      PTCLDY    59  50  72 CALM      30.17S

$$



USA.gov is the U.S. government's official web portal to all federal, state and local government web resources and services.